Theta_e
303 301 300 299 299 299 298 298 297 296 294 293 293 293 293 293 294 294 295 296 297 298 299 299 299 299 299 298 299 298 298 297 296 296 296 295 294 294 293 293 291 289
302 300 299 299 299 300 299 299 297 296 295 295 295 296 295 295 294 294 295 296 296 297 297 297 297 297 297 296 297 295 294 294 292 295 293 292 292 292 291 290 289 289
300 299 299 299 299 299 300 299 298 296 295 295 295 295 295 294 294 294 295 295 295 295 295 295 295 294 294 294 294 293 292 291 291 291 291 290 290 289 289 289 288 288
300 299 299 299 300 300 298 297 295 294 295 294 293 294 293 293 293 293 294 293 293 292 292 293 292 292 292 292 292 291 291 290 290 290 289 288 288 288 287 287 286 286
299 298 298 299 299 297 297 296 294 292 293 294 293 292 291 291 291 290 290 291 291 290 291 290 291 291 291 290 290 289 289 288 288 288 287 287 287 287 286 286 285 284
297 297 297 297 297 294 293 294 293 292 292 292 292 291 290 290 289 289 289 289 289 289 289 289 289 289 289 289 289 288 287 287 287 287 286 285 284 285 285 284 283 282
296 296 296 296 296 293 292 292 292 292 292 291 289 288 289 289 288 288 288 288 288 288 288 288 288 288 288 288 287 287 286 286 286 285 284 283 283 282 283 283 282 282
295 296 296 296 294 292 291 291 290 290 290 289 288 288 288 288 288 288 287 287 288 288 287 287 287 287 287 287 286 285 285 286 284 283 282 282 282 281 282 283 282 281
296 295 295 293 291 290 290 289 289 290 289 288 288 288 288 288 288 288 287 287 287 287 287 286 286 286 286 285 285 284 284 284 284 283 282 281 281 281 281 281 281 280
296 296 294 291 290 289 289 288 288 288 288 288 288 287 287 287 288 287 287 287 286 286 286 285 285 285 285 285 284 284 283 283 283 283 282 282 281 281 281 280 280 279
294 295 292 290 289 288 288 287 287 287 287 287 287 286 287 286 287 287 286 286 286 285 285 284 284 284 284 284 284 284 283 283 283 282 282 282 281 281 281 280 279 278
293 293 291 289 289 287 287 287 287 286 286 286 286 286 286 286 286 285 285 285 285 285 284 284 284 284 284 284 283 283 283 283 282 282 282 281 280 280 280 280 279 278
292 291 289 287 287 286 287 286 286 286 286 285 286 285 285 285 285 285 285 285 285 284 284 284 284 284 284 283 283 283 282 282 281 281 280 280 279 279 279 279 279 279
291 290 288 288 287 286 286 285 285 285 285 285 285 284 284 284 284 284 284 285 284 284 284 284 284 283 283 283 283 282 282 281 281 280 279 279 279 278 278 278 279 279
291 289 288 288 287 286 285 284 284 284 284 284 284 284 284 284 284 284 284 284 284 283 283 283 283 283 283 282 281 281 281 280 280 279 279 278 278 277 278 278 278 279
290 289 288 287 287 286 285 285 284 284 284 284 284 283 283 284 284 284 283 283 282 282 282 282 282 282 283 284 283 281 280 280 280 279 278 278 277 277 277 278 278 278
290 290 288 287 287 287 286 285 284 284 284 284 284 284 283 283 283 283 283 283 282 282 281 281 281 281 284 286 286 285 281 280 279 279 278 278 278 277 277 277 277 278
289 289 288 287 287 286 285 285 284 284 284 284 284 283 283 284 283 282 282 282 281 281 281 281 281 283 286 286 286 285 283 280 280 279 279 279 279 278 278 277 277 277
290 288 287 286 287 286 285 285 284 283 283 283 283 283 283 282 282 282 281 281 281 281 280 281 280 285 286 286 286 285 284 281 280 280 279 279 279 278 278 278 278 277
289 288 287 286 286 285 285 284 284 283 283 283 283 283 282 282 282 281 281 281 281 281 280 279 279 284 286 286 286 285 284 282 280 280 280 280 279 279 279 278 278 277
288 288 287 286 285 285 284 284 283 283 283 283 283 282 282 281 281 281 281 281 281 281 280 279 279 285 286 286 286 285 285 283 280 280 280 279 279 279 279 279 279 278
288 288 287 285 285 285 284 283 283 283 283 282 282 282 282 282 282 281 280 280 280 280 279 278 280 285 286 286 286 286 285 280 280 279 279 279 278 279 279 279 279 279
288 287 286 285 285 284 283 283 282 282 283 282 281 282 281 281 280 280 280 279 279 279 278 278 278 284 286 286 286 286 283 279 280 279 279 278 278 278 278 278 278 278
288 287 286 285 284 283 283 283 283 283 283 282 281 280 280 280 280 280 280 279 279 278 278 278 278 282 286 286 286 286 281 279 279 279 278 278 278 278 278 278 278 279
287 287 286 285 284 284 283 283 283 282 283 282 281 281 280 281 280 279 279 279 279 278 280 278 278 281 286 286 286 285 281 280 279 279 278 278 277 277 278 278 278 279
286 286 285 284 283 283 283 283 284 283 282 281 281 281 281 280 280 279 278 278 278 278 278 278 277 279 284 286 286 285 283 279 279 279 278 278 278 278 279 279 278 277
Wind_Speed
6 6 6 6 6 5 7 7 7 7 7 5 5 7 9 7 8 8 9 8 8 7 7 7 6 6 5 6 6 5 5 5 5 4 5 5 5 5 6 5 5 5
9 7 6 5 4 4 5 5 6 7 8 9 7 8 6 7 8 9 8 8 8 6 7 7 6 6 7 6 5 6 6 6 6 4 6 7 6 6 7 6 6 5
7 8 8 8 7 8 7 7 5 5 3 4 5 6 5 6 8 6 6 6 6 6 6 6 6 7 7 6 7 6 6 7 7 5 7 7 6 6 5 6 6 6
9 8 7 7 7 7 6 6 5 3 3 3 4 4 5 5 7 6 6 6 5 5 5 6 6 6 6 7 7 6 7 7 6 7 7 6 6 6 6 6 6 7
10 8 7 7 6 5 6 7 7 6 6 5 3 4 5 5 7 7 6 6 6 6 6 6 6 6 7 7 7 8 7 7 7 7 8 8 5 6 5 6 7 7
7 7 7 7 7 7 6 6 5 8 7 6 6 5 5 6 7 7 7 8 6 6 7 6 7 7 7 7 7 7 7 7 7 8 9 8 7 5 5 6 7 8
9 8 8 8 7 6 5 6 6 8 7 6 5 5 6 7 8 8 7 7 8 7 8 7 8 8 7 7 7 8 7 8 9 9 10 8 8 7 5 6 7 8
10 8 8 8 9 8 8 7 7 8 7 6 7 6 7 7 8 8 7 7 8 8 7 7 8 8 8 7 9 9 9 7 8 9 9 9 8 8 7 5 7 7
10 10 9 10 9 8 8 8 7 8 8 8 8 7 7 8 8 8 8 8 7 8 9 8 9 9 7 8 9 10 11 9 8 9 10 10 9 8 8 7 7 7
11 9 11 10 9 9 9 8 7 8 7 8 8 7 8 7 7 8 8 8 8 9 9 9 10 9 8 8 9 10 10 10 9 9 9 9 9 9 8 8 7 8
11 10 10 10 10 9 10 9 9 8 7 9 8 8 8 8 8 7 8 8 8 9 10 10 10 10 10 9 8 8 10 10 9 9 9 9 9 9 8 7 8 7
10 11 12 12 11 9 10 10 9 8 9 8 9 9 9 9 10 9 9 9 9 9 9 10 10 10 10 10 10 9 8 8 8 9 8 8 8 7 7 7 8 7
9 9 8 8 8 9 9 9 10 9 10 10 9 10 10 10 10 10 9 9 9 9 10 10 10 10 10 10 10 10 10 10 9 8 7 7 7 8 7 7 6 7
9 8 10 11 10 10 10 9 9 9 10 10 9 10 10 11 11 11 9 9 9 9 9 9 10 10 10 10 10 10 10 8 8 8 8 7 8 7 6 7 6 6
9 8 7 10 10 10 9 9 8 8 8 9 9 9 7 9 8 9 10 9 9 8 9 8 9 10 10 11 11 9 9 9 8 9 9 9 8 7 6 5 5 5
10 10 10 10 11 11 11 11 10 9 8 9 9 9 9 8 9 9 9 9 11 10 9 8 8 8 11 16 14 11 12 10 9 9 8 7 8 8 6 5 5 5
11 12 11 12 12 10 10 11 11 9 8 8 8 10 10 9 9 10 9 9 10 12 12 11 9 8 15 14 16 17 14 12 13 11 8 9 8 9 8 6 5 5
11 12 11 12 12 11 9 8 8 10 10 9 8 8 8 6 9 10 9 9 10 11 10 10 10 13 18 17 17 17 14 12 8 8 8 6 8 10 8 6 6 6
11 12 12 12 12 10 9 9 10 10 11 10 10 8 7 8 8 10 9 10 11 12 12 12 9 13 16 18 17 17 18 14 6 8 9 10 10 10 7 6 6 5
11 10 11 11 10 10 10 10 11 12 11 10 9 8 8 8 7 8 7 9 12 13 10 6 9 15 18 18 18 18 19 14 12 14 12 12 12 11 9 7 7 6
11 12 9 11 10 10 10 11 12 10 9 9 9 10 11 11 11 11 10 10 9 6 6 8 9 17 18 19 19 20 20 12 11 11 9 9 10 9 9 8 7 7
12 11 10 10 10 10 11 12 11 10 9 8 8 7 7 6 6 6 7 6 6 7 6 6 7 18 21 21 20 20 20 9 9 12 12 11 7 6 6 5 5 5
11 11 9 10 11 12 12 11 10 10 6 6 8 6 8 8 8 8 8 9 10 9 10 10 9 15 18 20 21 21 14 7 10 8 8 10 9 6 5 6 6 6
11 11 10 11 12 13 12 10 8 5 7 9 10 10 10 9 8 8 7 7 8 9 10 10 9 14 19 19 20 21 16 14 7 11 7 8 7 4 5 6 7 12
8 9 9 10 11 11 10 11 10 9 8 9 8 8 9 7 7 7 7 6 6 7 5 6 5 10 17 18 19 19 15 13 12 12 8 6 7 6 6 5 7 9
7 9 9 10 11 9 9 9 7 6 9 9 8 5 6 7 7 8 9 8 8 8 8 6 6 7 11 18 19 20 21 13 12 12 9 10 7 7 9 7 7 6
Wind_Direction
183 171 176 174 183 179 173 183 186 184 186 183 188 189 187 183 167 173 184 180 182 183 171 160 153 139 129 132 141 130 127 115 109 102 104 101 99 103 101 90 82 92
190 178 176 175 184 179 180 186 185 184 184 187 190 183 175 169 155 168 175 169 170 164 146 145 141 134 136 137 134 125 112 106 96 87 104 99 100 94 90 93 94 96
177 175 178 187 189 186 185 190 187 202 190 185 165 169 155 143 147 156 159 157 149 136 132 132 131 137 135 125 125 117 117 115 111 107 106 103 100 100 99 96 88 84
190 181 181 185 188 183 173 172 178 160 179 185 180 152 143 147 151 146 137 138 130 131 131 131 130 125 122 124 121 110 113 110 113 113 106 94 95 103 98 93 91 84
190 183 178 187 180 154 159 162 170 176 185 184 120 120 141 132 145 140 139 137 138 137 134 131 127 126 125 124 120 117 116 114 118 120 114 109 98 99 101 103 102 99
184 175 178 178 179 154 149 161 159 175 180 179 171 153 154 154 152 148 150 149 148 142 142 136 131 126 128 125 121 121 125 123 126 121 114 113 108 95 105 107 107 103
184 175 181 186 174 156 155 163 165 183 186 178 137 160 158 159 160 158 158 157 150 151 148 146 136 131 128 130 127 127 123 126 127 124 120 117 118 111 105 107 104 100
178 182 182 186 187 175 182 183 181 184 181 159 168 166 166 163 161 159 159 156 156 145 144 140 133 133 139 138 135 130 123 129 131 127 123 124 124 123 118 107 107 108
186 192 188 188 174 182 185 184 185 183 173 176 174 166 171 169 162 162 160 157 155 150 145 140 140 139 145 142 139 135 133 131 135 134 131 133 128 125 119 115 113 117
194 191 188 188 183 188 190 188 184 183 175 181 176 168 172 165 160 163 159 160 158 154 148 144 143 146 144 141 142 139 138 136 135 132 131 132 131 128 125 123 124 126
188 192 191 185 186 186 190 186 183 179 178 180 173 172 170 160 161 164 163 162 161 160 153 149 150 149 145 141 140 141 138 136 137 132 132 130 125 122 121 123 133 138
185 191 195 191 186 183 188 186 181 179 181 182 178 176 169 168 166 169 170 169 162 161 158 155 151 151 150 147 144 139 132 131 129 126 120 117 114 115 121 124 135 135
179 181 174 167 177 181 184 184 182 180 180 185 183 180 175 169 172 170 173 169 164 161 161 157 153 150 146 144 139 136 135 135 129 118 113 107 113 118 117 122 127 129
180 168 175 182 182 183 189 188 184 182 183 182 182 184 181 179 176 174 171 167 163 162 158 155 152 149 146 144 146 146 143 129 119 120 119 116 120 123 121 130 127 122
173 160 155 175 181 182 182 184 182 181 182 182 182 184 182 180 179 174 168 162 155 156 153 157 159 159 159 156 147 136 128 125 127 133 134 134 128 118 105 113 119 120
167 171 175 167 181 185 179 180 179 180 184 185 187 187 183 176 176 174 174 166 157 152 152 156 165 166 161 155 153 147 146 143 138 139 133 121 118 119 126 131 132 126
178 186 176 181 183 181 180 176 176 177 183 187 189 189 185 179 173 174 180 173 162 155 160 172 167 161 160 156 155 153 153 153 145 121 114 130 137 139 144 149 140 139
180 182 183 181 176 181 174 171 168 173 180 186 188 187 188 175 179 183 177 167 161 169 169 170 170 168 167 165 161 155 149 135 124 135 141 143 140 153 156 139 144 144
181 180 181 177 181 172 171 171 174 178 183 185 188 183 176 182 184 176 174 172 176 178 181 179 164 164 166 162 160 152 149 144 136 132 140 141 142 145 139 141 140 144
179 178 183 167 157 170 171 175 176 184 185 182 176 174 177 181 178 179 179 179 185 189 181 140 157 171 166 162 158 156 155 152 156 145 138 131 140 149 148 140 151 152
176 182 172 171 173 168 171 177 178 179 177 178 176 178 177 180 182 183 187 187 187 174 166 177 173 168 162 159 162 165 163 153 135 123 128 130 142 140 137 139 149 161
177 179 175 169 162 165 171 178 181 180 174 170 171 173 177 171 179 179 177 179 178 181 177 161 167 173 172 173 168 162 157 146 137 140 143 142 138 147 148 141 146 161
166 173 170 166 161 166 177 180 177 177 156 147 167 158 174 177 179 181 179 175 177 180 179 183 186 186 176 173 171 163 149 121 136 132 136 132 151 151 147 150 170 172
168 174 171 173 174 180 180 180 173 159 165 172 173 174 181 182 177 173 175 177 177 183 185 182 186 190 184 178 169 165 160 148 147 135 145 143 126 135 152 174 189 190
171 174 171 173 179 181 177 175 175 172 166 170 176 174 179 168 167 167 165 165 171 178 167 178 176 193 188 183 177 169 159 154 154 132 141 146 136 146 175 185 199 199
166 170 171 171 175 174 174 176 157 142 163 162 168 156 155 165 165 168 169 174 168 169 183 180 167 188 198 188 181 179 173 168 155 137 147 137 148 177 191 206 206 203